Regional Weather Roundup
Issued by NWS

Home | Current Version | Previous Version | Graphics & Text | Print | Product List | Glossary On
Versions: 1 2 3 4 5 6 7 8 9 10 11 12 13 14 15 16 17 18 19 20 21 22 23 24 25 26 27 28 29 30 31 32 33 34 35 36 37 38 39 40 41 42 43 44 45
000
ASUS45 KPSR 220810
RWRAZ

ARIZONA HOURLY REGIONAL WEATHER ROUNDUP
NATIONAL WEATHER SERVICE PHOENIX AZ
100 AM MST MON MAY 22 2017

NOTE: FAIR INDICATES FEW OR NO CLOUDS BELOW 12,000 FEET WITH NO
SIGNIFICANT WEATHER AND/OR OBSTRUCTIONS TO VISIBILITY.

AZZ001>003-036-220900-
NORTHWEST ARIZONA

CITY           SKY/WX    TMP DP  RH WIND       PRES   REMARKS
BULLHEAD CITY  PTCLDY    84  23  10 CALM      29.82R
KINGMAN        PTCLDY    64  25  22 MISG      30.02F
$$

AZZ004>008-015-016-018-220900-
NORTH CENTRAL ARIZONA

CITY           SKY/WX    TMP DP  RH WIND       PRES   REMARKS
GRAND CANYON   PTCLDY    38  31  76 CALM      30.25S
WILLIAMS       CLEAR     45  32  61 S9        30.25S
PRESCOTT       CLEAR     57  32  38 S3        30.14S
FLAGSTAFF      CLEAR     44  28  53 CALM      30.26S
PAYSON         CLEAR     61  21  21 N3        30.15S
PAGE           CLEAR     65  41  41 N5        30.15R
$$

AZZ009>014-017-220900-
NORTHEAST ARIZONA

CITY           SKY/WX    TMP DP  RH WIND       PRES   REMARKS
WINSLOW        CLEAR     54  27  35 SW8       30.16R
SAINT JOHNS    PTCLDY    53  21  28 S7        30.15S
WINDOW ROCK    MOCLDY    43  29  57 CALM      30.24S
SHOW LOW       CLEAR     45  18  33 SE3       30.22R
$$

AZZ540-542>544-546-548-220900-
GREATER PHOENIX AREA

CITY           SKY/WX    TMP DP  RH WIND       PRES   REMARKS
PHOENIX        CLEAR     82  35  18 SW3       29.83S
BUCKEYE        CLEAR     68  28  22 NW3       29.84R
LUKE AFB       CLEAR     74  34  22 N5        29.82F
DEER VALLEY    CLEAR     71  27  19 CALM      29.85S
SCOTTSDALE     CLEAR     78  36  21 CALM      29.87S
MESA-GATEWAY   CLEAR     70  27  19 SE8       29.87S
$$

AZZ539-553-220900-
SOUTHWEST MARICOPA COUNTY AND PINAL COUNTY

CITY           SKY/WX    TMP DP  RH WIND       PRES   REMARKS
CASA GRANDE    CLEAR     72  26  18 CALM      29.88R
GILA BEND      FAIR      78  20  11 S7        29.83R
$$

AZZ503-504-507>509-220900-
SOUTHEAST ARIZONA

CITY           SKY/WX    TMP DP  RH WIND       PRES   REMARKS
TUCSON         CLEAR     72  19  13 SE6       29.98S
DAVIS-MONTHAN  CLEAR     70  19  14 E6        29.97S
NOGALES        CLEAR     64  27  24 E5        30.05F
SIERRA VISTA   CLEAR     66  13  13 W10       30.10F
DOUGLAS        CLEAR     56  14  19 NW10      30.06R
SAFFORD        CLEAR     71  16  12 NW8       29.96S
$$

AZZ532-220900-
SOUTHWEST ARIZONA

CITY           SKY/WX    TMP DP  RH WIND       PRES   REMARKS
YUMA           CLEAR     77  38  24 S5        29.81F
$$

CAZ041-043-047-048-061-525>527-560>570-220900-
SOUTHERN CALIFORNIA

CITY           SKY/WX    TMP DP  RH WIND       PRES   REMARKS
DOWNTOWN L.A.  CLEAR     63  59  87 CALM      29.95S
L.A. AIRPORT   MOCLDY    61  59  93 W8        29.96R
SAN DIEGO      CLOUDY    64  60  87 N5        29.97S
BURBANK        CLEAR     65  55  70 E8        29.95R
ONTARIO        PTCLDY    68  54  60 CALM      29.95S
RIVERSIDE      CLEAR     69  50  50 CALM      29.96R
PALM SPRINGS   CLEAR     84  41  21 SE6       29.85S
EL CENTRO NAS  CLEAR     79  37  22 W10       29.81S
IMPERIAL       CLEAR     77  44  30 W8        29.79S
BLYTHE         CLEAR     83  34  17 S7        29.80S
NEEDLES        PTCLDY    87  19   8 SW5       29.83S
$$

NVZ020-UTZ003-220900-
SOUTHERN NEVADA-UTAH

CITY           SKY/WX    TMP DP  RH WIND       PRES   REMARKS
LAS VEGAS      PTCLDY    83  30  14 NE14      29.95R
SALT LAKE CITY CLEAR     53  44  71 S5        30.24R
$$

NMZ009-TXZ055-220900-
NEW MEXICO-WEST TEXAS

CITY           SKY/WX    TMP DP  RH WIND       PRES   REMARKS
ALBUQUERQUE    PTCLDY    61  19  19 N6        30.14R
EL PASO        CLEAR     70  49  47 SE13      30.02S
$$


........................KEY........................
SKY/WX - SKY CONDITION/WEATHER
TMP    - TEMPERATURE IN FAHRENHEIT
DP     - DEW POINT IN FAHRENHEIT
RH     - RELATIVE HUMIDITY IN PERCENT
WIND   - DIRECTION AND SPEED IN MILES PER HOUR (MPH)
VRB    - VARIABLE WIND DIRECTION
PRES   - MEAN SEA LEVEL PRESSURE IN INCHES OF MERCURY
         F - FALLING PRESSURE   R - RISING PRESSURE
         S - STEADY PRESSURE
VSB    - VISIBILITY IN MILES
HX     - HEAT INDEX IN FAHRENHEIT
WCI    - WIND CHILL INDEX IN FAHRENHEIT
TC     - TEMPERATURE IN CELSIUS WHICH IS ALSO KNOWN AS
         TEMPERATURE IN CENTIGRADE
AFB    - AIR FORCE BASE
         LUKE AFB IS LUKE AIR FORCE BASE
         DAVIS-MONTHAN IS DAVIS-MONTHAN AIR FORCE BASE
NAS    - NAVAL AIR STATION
         EL CENTRO NAS IS EL CENTRO NAVAL AIR STATION
N/A    - NOT AVAILABLE





USA.gov is the U.S. government's official web portal to all federal, state and local government web resources and services.